Wind_Speed
3 3 3 3 3 3 3 3 3 2 2 3 3 3 3 3 3 3 3 3 2 2 1 2 2 2 1 1 1 1 2 2 3 3 3 3 4 4 4 4 4 4 3
2 3 3 3 3 3 2 2 1 1 1 1 2 2 2 3 3 2 2 2 2 2 2 2 2 2 2 2 2 3 3 4 4 4 4 4 5 5 5 5 5 5 5
1 1 2 2 2 1 1 0 0 0 1 1 2 2 2 2 2 2 2 3 3 3 2 3 3 3 3 3 4 4 4 5 6 6 5 5 6 6 6 6 7 7 7
0 1 1 1 1 1 1 1 1 2 1 2 2 2 3 3 3 3 3 3 4 4 4 5 5 5 5 5 5 5 6 6 7 7 7 7 7 7 8 8 8 8 8
2 2 3 3 3 3 3 2 3 3 3 4 4 4 5 5 5 5 5 5 6 6 6 7 7 7 6 6 7 7 7 8 8 8 8 9 9 9 10 10 10 10 10
3 4 4 4 5 4 4 4 4 4 5 5 6 6 7 7 7 7 8 8 8 8 8 9 9 9 9 9 9 9 9 10 10 10 10 11 12 12 12 12 12 13 13
4 4 5 5 5 6 5 5 5 6 6 7 8 8 9 9 10 10 10 10 10 10 10 11 11 11 11 11 11 11 12 12 12 12 12 13 13 14 14 14 14 15 16
5 6 5 5 5 6 6 6 6 7 8 9 9 10 11 11 11 11 12 13 13 13 13 13 13 13 14 14 14 14 14 15 15 14 15 15 15 15 16 16 16 17 18
6 5 5 5 6 6 7 7 8 9 9 10 11 11 12 13 13 14 14 14 15 15 15 16 16 16 16 16 16 17 17 17 16 16 17 17 17 17 17 17 18 18 18
4 4 5 6 7 7 8 9 10 10 11 12 12 13 14 14 15 16 16 17 17 17 17 18 19 18 18 18 19 19 19 18 18 17 18 19 19 19 19 19 19 19 20
4 5 5 6 7 8 9 10 10 11 12 13 13 14 14 15 15 16 17 18 18 19 19 19 19 20 20 20 20 20 21 20 20 20 21 21 21 21 21 21 21 22 22
5 6 6 7 7 8 9 10 11 12 13 14 14 15 15 16 17 17 18 18 19 20 21 21 21 20 20 20 20 20 21 22 22 22 22 23 23 23 24 24 24 24 25
6 7 7 8 9 9 10 11 12 13 14 15 16 16 17 17 17 18 18 19 20 21 22 23 23 23 22 22 23 23 23 23 23 24 24 25 26 26 26 26 27 27 27
7 8 8 9 10 10 10 11 13 14 15 15 16 17 18 18 19 19 20 20 20 20 21 22 23 23 23 23 24 25 25 25 25 26 27 27 28 28 28 28 28 28 28
8 8 9 9 9 10 11 12 13 13 14 15 15 16 18 19 19 19 20 21 21 21 22 23 23 24 24 24 25 25 26 26 26 26 27 27 28 28 29 30 30 31 31
8 8 9 9 10 11 12 12 13 15 15 16 17 17 18 19 19 20 21 21 21 22 22 23 24 25 25 26 26 27 27 27 28 28 29 29 30 30 30 31 31 32 32
9 9 10 10 11 12 13 14 15 15 16 17 17 18 18 19 19 20 21 21 22 22 23 23 25 25 26 27 27 28 28 28 29 30 30 30 30 31 31 33 33 33 33
10 10 10 11 12 13 14 15 15 16 17 17 18 18 19 19 20 20 21 21 22 23 23 24 25 26 27 27 27 28 28 28 29 29 30 30 30 31 31 32 33 34 33
11 11 12 12 12 13 14 15 15 16 17 17 18 19 19 19 20 21 22 22 23 23 23 24 24 25 26 27 27 28 29 29 30 30 31 31 32 33 33 33 33 34 34
11 11 12 12 12 13 14 15 15 16 18 19 19 20 20 20 21 21 22 23 23 23 23 24 25 25 25 26 27 29 30 30 31 31 32 33 33 34 34 33 33 33 34
11 11 12 12 13 13 14 16 16 17 18 19 20 20 20 20 21 21 22 23 23 23 24 24 24 25 25 27 28 29 30 31 32 33 34 35 35 35 34 34 34 34 35
12 12 12 13 14 15 16 17 18 18 19 19 19 20 20 20 21 22 22 23 23 23 24 24 25 25 26 27 28 29 30 31 32 33 34 34 35 34 34 34 35 35 36
14 14 14 14 15 16 17 18 18 19 19 19 20 20 21 21 22 22 22 23 23 23 24 24 25 26 27 28 29 30 30 31 31 32 32 33 33 33 34 34 34 35 36
14 14 15 15 15 16 17 17 19 20 20 20 20 21 22 22 22 23 23 24 24 24 24 25 26 27 28 28 29 30 31 31 32 32 33 33 33 33 33 34 34 35 36
15 16 16 16 16 17 17 18 19 19 20 21 21 22 22 22 23 23 24 24 24 25 25 26 27 27 28 28 29 30 31 31 31 32 32 32 32 33 33 34 35 36 36
16 17 17 17 18 18 18 19 20 20 20 21 21 22 23 23 24 24 24 25 25 25 26 26 27 28 29 29 29 31 31 31 31 31 31 32 32 33 33 34 35 35 35
Wind_Direction
66 85 83 87 103 94 85 83 85 87 75 70 58 45 39 47 47 44 39 33 36 40 29 15 9 1 353 339 309 277 269 262 254 256 241 237 235 237 244 252 259 265 268
73 89 97 108 110 107 96 94 87 70 47 34 27 22 22 28 27 20 13 8 0 350 347 344 338 332 334 330 313 297 283 275 268 258 251 251 248 250 255 260 266 268 268
73 89 107 122 126 122 101 53 252 318 308 305 308 314 330 349 351 349 340 328 315 311 311 317 317 316 311 309 302 301 291 279 271 261 257 256 254 257 260 265 268 268 268
327 235 209 214 201 208 246 287 283 270 280 292 293 296 297 303 308 309 310 303 297 298 300 303 305 303 298 294 295 294 291 285 277 267 260 258 257 260 263 267 269 269 269
280 257 255 245 239 242 252 272 280 276 273 277 282 281 286 283 285 285 290 287 285 288 294 297 297 294 291 288 288 288 286 284 280 274 266 263 264 265 267 268 269 269 269
268 262 261 253 256 255 256 264 274 269 270 272 274 277 281 282 281 279 282 282 281 284 288 292 293 292 287 285 286 286 285 282 280 278 273 269 269 269 270 270 269 268 268
271 271 273 265 264 262 263 265 273 272 273 277 278 280 283 284 283 282 282 281 281 282 283 286 289 290 286 284 286 288 286 282 277 276 274 273 273 272 272 273 272 270 269
268 273 273 268 266 266 263 267 274 279 280 281 281 280 282 285 283 283 283 279 281 282 281 282 285 286 286 284 283 283 282 280 278 276 274 274 275 275 273 273 273 273 271
273 263 262 263 262 266 267 272 276 282 283 283 283 280 279 282 284 285 285 282 279 280 279 280 282 282 282 281 282 281 280 282 280 275 274 275 276 275 273 272 273 273 273
284 269 258 258 264 269 271 272 276 280 280 282 283 280 279 281 282 283 283 283 280 279 278 277 278 278 279 280 281 280 280 278 278 278 276 274 274 272 270 270 271 272 271
287 269 264 262 263 268 271 275 279 283 283 282 282 283 284 283 283 282 281 282 280 280 279 279 276 276 277 278 280 278 278 279 279 278 277 275 273 272 271 271 271 270 270
278 269 267 269 272 278 277 277 280 284 285 284 284 284 284 284 287 286 284 282 281 282 281 280 278 277 277 278 278 278 278 279 280 280 278 277 275 272 271 271 271 270 269
278 277 273 272 275 279 279 280 283 286 287 286 286 285 284 284 286 287 286 287 286 284 282 280 280 281 280 278 276 276 278 278 277 277 278 277 276 274 272 271 270 269 268
285 279 277 276 276 279 282 283 286 290 288 287 287 284 284 285 286 288 288 288 289 288 285 282 282 281 281 280 279 277 278 279 278 278 278 276 276 275 274 272 270 268 268
289 283 282 280 281 283 286 289 291 292 291 291 289 288 289 289 289 291 290 289 288 286 284 284 284 283 283 282 281 279 280 279 279 279 279 278 278 278 277 276 274 271 271
298 291 285 286 287 289 292 294 294 295 295 295 295 296 296 295 294 292 293 292 290 289 286 283 284 282 282 283 282 280 279 279 279 279 278 277 277 277 276 276 276 274 273
305 302 295 291 291 292 294 295 295 295 295 298 299 298 298 297 296 297 297 295 293 291 288 286 285 285 285 284 285 283 281 281 283 283 281 277 277 278 277 276 275 273 273
302 300 296 293 293 291 292 293 295 296 297 298 299 300 300 299 298 299 299 297 295 292 290 288 287 288 286 287 288 288 287 285 284 284 283 282 280 280 279 277 275 273 272
303 301 300 297 295 294 295 296 297 299 301 302 301 299 300 301 300 299 299 299 298 296 295 293 291 291 288 286 287 288 288 288 285 286 286 285 284 282 282 279 276 275 273
309 304 304 303 301 300 300 303 304 303 303 302 302 301 301 301 301 300 299 299 299 298 297 297 296 294 292 290 290 289 289 289 288 287 287 287 286 284 283 281 278 277 276
312 312 309 307 308 307 306 304 305 305 304 303 303 303 302 302 302 301 300 300 300 300 299 298 296 295 293 292 292 291 291 290 289 288 287 287 286 285 283 282 282 281 278
315 313 310 309 308 308 307 306 306 306 307 305 305 305 305 303 303 304 304 303 302 302 301 300 299 297 296 296 295 295 294 293 291 289 289 289 288 286 284 283 283 282 280
314 314 311 310 308 308 309 309 311 311 308 307 307 306 306 305 305 305 305 305 305 305 304 303 302 301 300 299 298 298 298 297 295 293 291 290 289 287 285 284 283 284 283
313 312 312 311 310 310 311 313 314 313 310 308 308 308 308 306 307 306 305 305 305 306 305 305 306 305 303 303 302 301 300 299 298 296 294 292 290 287 287 286 286 285 285
312 309 308 307 308 309 311 312 313 313 310 308 308 308 308 308 307 307 306 305 305 306 306 307 307 307 306 306 306 306 304 302 300 298 296 293 291 289 288 287 286 286 286
308 307 307 306 307 308 309 309 310 311 311 310 310 310 310 309 309 307 306 305 306 307 307 308 308 307 306 307 307 307 307 306 304 302 299 296 294 293 291 289 289 287 287
Height
5898 5898 5898 5898 5899 5900 5900 5900 5900 5901 5901 5901 5901 5901 5901 5901 5901 5901 5901 5901 5901 5900 5900 5900 5900 5900 5900 5900 5900 5900 5900 5900 5900 5900 5900 5901 5901 5901 5901 5902 5902 5902 5902
5898 5898 5898 5899 5899 5900 5900 5900 5901 5901 5901 5901 5902 5902 5902 5902 5901 5901 5901 5901 5901 5900 5900 5900 5900 5900 5900 5900 5900 5900 5900 5900 5900 5900 5900 5900 5900 5900 5901 5901 5901 5901 5901
5898 5898 5898 5899 5899 5900 5900 5900 5901 5901 5901 5901 5901 5901 5901 5901 5901 5901 5901 5901 5900 5900 5900 5900 5900 5900 5899 5899 5899 5899 5899 5899 5899 5899 5899 5899 5899 5899 5900 5900 5900 5900 5900
5898 5898 5899 5899 5899 5900 5900 5900 5901 5901 5901 5901 5901 5901 5901 5901 5901 5901 5901 5900 5900 5900 5900 5900 5899 5899 5899 5898 5898 5898 5898 5898 5898 5897 5898 5898 5898 5898 5898 5898 5898 5898 5898
5897 5898 5898 5898 5899 5899 5900 5900 5900 5900 5900 5900 5900 5900 5900 5901 5900 5900 5900 5900 5899 5899 5899 5899 5898 5898 5898 5897 5897 5896 5896 5896 5896 5896 5896 5896 5896 5896 5896 5896 5896 5896 5896
5897 5897 5897 5898 5898 5899 5899 5899 5899 5900 5900 5900 5900 5900 5900 5899 5899 5899 5899 5898 5898 5898 5898 5897 5897 5896 5896 5896 5895 5895 5894 5894 5894 5894 5894 5894 5894 5893 5893 5893 5893 5893 5893
5896 5896 5896 5897 5897 5898 5898 5898 5898 5899 5899 5899 5899 5899 5898 5898 5898 5897 5897 5897 5896 5896 5896 5895 5895 5894 5894 5893 5893 5893 5892 5891 5891 5891 5891 5891 5890 5890 5890 5890 5890 5890 5890
5894 5894 5895 5895 5896 5896 5897 5897 5897 5897 5897 5897 5897 5897 5897 5897 5896 5895 5895 5894 5894 5894 5893 5893 5892 5891 5891 5890 5890 5890 5889 5888 5888 5887 5887 5887 5887 5887 5886 5886 5886 5886 5886
5892 5893 5893 5894 5895 5895 5895 5896 5896 5896 5896 5895 5895 5895 5895 5894 5893 5893 5892 5892 5891 5891 5890 5890 5889 5888 5888 5887 5887 5886 5885 5885 5884 5884 5883 5883 5883 5883 5882 5882 5882 5882 5882
5891 5891 5892 5892 5893 5893 5894 5894 5894 5893 5893 5893 5892 5892 5892 5891 5890 5890 5889 5888 5888 5887 5886 5886 5885 5884 5884 5883 5883 5882 5881 5881 5880 5880 5879 5879 5878 5878 5878 5878 5877 5877 5877
5891 5891 5891 5891 5891 5892 5892 5892 5892 5891 5891 5890 5889 5889 5888 5888 5887 5886 5886 5885 5884 5883 5882 5882 5881 5880 5879 5879 5878 5877 5877 5876 5876 5875 5874 5874 5874 5873 5873 5873 5872 5872 5872
5890 5890 5890 5890 5890 5890 5890 5890 5889 5889 5888 5887 5887 5886 5885 5884 5884 5883 5882 5881 5880 5879 5878 5877 5876 5875 5875 5874 5873 5872 5872 5872 5871 5870 5870 5869 5868 5867 5867 5867 5866 5866 5866
5889 5889 5889 5889 5888 5888 5888 5887 5887 5886 5885 5884 5884 5883 5882 5881 5880 5879 5878 5877 5876 5875 5873 5872 5871 5870 5869 5869 5868 5867 5866 5866 5865 5864 5864 5863 5862 5861 5860 5860 5859 5859 5859
5888 5887 5887 5887 5886 5886 5885 5885 5884 5883 5882 5881 5880 5879 5878 5877 5876 5875 5873 5872 5871 5870 5868 5867 5866 5865 5864 5863 5862 5861 5860 5860 5859 5858 5857 5856 5855 5854 5854 5853 5852 5851 5851
5886 5886 5885 5885 5884 5884 5883 5882 5881 5880 5879 5878 5877 5876 5874 5873 5872 5871 5869 5867 5867 5865 5864 5862 5860 5860 5858 5857 5856 5855 5854 5853 5852 5851 5850 5849 5848 5847 5846 5845 5844 5844 5843
5884 5883 5883 5882 5882 5881 5880 5879 5878 5877 5875 5874 5873 5872 5870 5869 5867 5866 5864 5862 5861 5860 5858 5857 5855 5854 5852 5851 5850 5848 5848 5846 5845 5844 5843 5842 5841 5839 5838 5837 5836 5835 5835
5882 5881 5880 5879 5879 5878 5877 5876 5875 5873 5872 5870 5869 5868 5866 5864 5863 5861 5859 5857 5856 5854 5853 5852 5850 5848 5846 5845 5843 5842 5840 5839 5838 5836 5835 5834 5833 5831 5830 5828 5827 5826 5825
5880 5879 5878 5877 5876 5875 5874 5873 5871 5870 5868 5867 5865 5863 5862 5860 5858 5856 5854 5852 5850 5849 5847 5845 5843 5841 5840 5838 5836 5835 5833 5832 5830 5829 5827 5825 5824 5823 5821 5819 5818 5816 5816
5878 5877 5875 5874 5873 5872 5871 5869 5868 5866 5864 5863 5861 5859 5857 5855 5853 5851 5849 5847 5845 5843 5841 5839 5837 5835 5833 5831 5830 5828 5826 5824 5822 5821 5819 5817 5816 5814 5812 5810 5809 5807 5806
5876 5874 5873 5872 5870 5869 5868 5866 5864 5863 5861 5858 5856 5854 5853 5851 5849 5847 5845 5842 5840 5838 5836 5833 5831 5829 5827 5825 5823 5821 5819 5817 5815 5813 5811 5808 5807 5805 5803 5801 5800 5798 5797
5873 5872 5870 5869 5868 5866 5864 5863 5861 5858 5856 5854 5852 5850 5848 5846 5844 5842 5839 5837 5835 5832 5830 5828 5826 5823 5821 5819 5816 5814 5812 5809 5807 5804 5802 5800 5797 5795 5793 5792 5790 5789 5787
5871 5869 5868 5866 5865 5863 5861 5859 5857 5855 5852 5850 5848 5845 5843 5841 5839 5837 5834 5832 5830 5827 5825 5822 5820 5817 5815 5812 5809 5806 5804 5801 5798 5796 5793 5790 5788 5786 5783 5782 5780 5778 5777
5868 5867 5865 5863 5862 5860 5858 5856 5853 5851 5848 5846 5843 5841 5839 5836 5834 5831 5829 5827 5824 5821 5819 5816 5813 5810 5808 5805 5802 5799 5796 5792 5789 5786 5784 5781 5778 5776 5774 5772 5770 5768 5766
5866 5864 5862 5860 5859 5857 5855 5852 5850 5847 5844 5841 5839 5837 5834 5831 5829 5826 5824 5821 5818 5815 5813 5810 5807 5804 5801 5798 5794 5791 5788 5784 5780 5777 5774 5772 5769 5767 5764 5762 5760 5758 5756
5863 5861 5859 5857 5855 5853 5851 5849 5846 5843 5840 5837 5835 5832 5829 5826 5824 5821 5818 5816 5813 5810 5807 5804 5801 5797 5794 5791 5787 5784 5780 5777 5773 5769 5766 5763 5760 5757 5754 5752 5750 5748 5745
5859 5858 5856 5854 5852 5850 5847 5845 5842 5839 5836 5833 5830 5828 5825 5822 5819 5816 5813 5810 5807 5804 5801 5798 5794 5791 5788 5784 5780 5777 5773 5769 5765 5761 5757 5754 5751 5748 5745 5743 5740 5737 5735